Location: Bonny Doon Airfield
(37.0704°N, 122.1252°W)
Time: 15:59:55
(UTC-07:00)

Vanguard 1 - All Passes

Search period start: 22 October 2017 00:00
Search period end: 01 November 2017 00:00
Orbit: 650 x 3834 km, 34.3° (Epoch: 21 October)

Date Brightness Start Highest point End Pass type
(mag) Time Alt. Az. Time Alt. Az. Time Alt. Az.
22 Oct - 00:59:57 10° WSW 01:11:31 68° SSE 01:32:07 10° E visible
22 Oct - 03:20:39 10° W 03:36:44 82° S 04:00:36 10° E visible
22 Oct - 05:43:32 10° W 06:03:40 66° SSW 06:26:07 10° SE visible
22 Oct - 08:09:42 10° W 08:28:44 34° SW 08:45:56 10° SSE daylight
22 Oct - 23:02:33 10° SSW 23:10:52 38° SE 23:25:02 10° E visible
23 Oct - 01:20:48 10° WSW 01:32:47 75° SSE 01:54:04 10° E visible
23 Oct - 03:41:52 10° W 03:58:26 80° S 04:22:19 10° ESE visible
23 Oct - 06:05:02 10° W 06:25:04 58° SSW 06:46:54 10° SE visible
23 Oct - 08:32:30 10° W 08:49:29 27° SW 09:04:58 10° S daylight
23 Oct - 23:22:46 10° SW 23:31:29 48° SE 23:47:08 10° E visible
24 Oct - 01:41:46 10° WSW 01:54:11 79° S 02:16:00 10° E visible
24 Oct - 04:03:07 10° W 04:20:06 76° SSW 04:43:53 10° ESE visible
24 Oct - 06:26:37 10° W 06:46:21 50° SW 07:07:22 10° SE visible
24 Oct - 08:56:19 10° W 09:10:09 20° SW 09:23:00 10° SSW daylight
24 Oct - 21:28:00 10° SSE 21:32:49 17° SE 21:39:18 10° E night (unlit)
24 Oct - 23:43:14 10° SW 23:52:18 57° SSE 00:09:05 10° E visible
25 Oct - 02:02:48 10° W 02:15:41 81° S 02:37:56 10° E visible
25 Oct - 04:24:22 10° W 04:41:41 71° SSW 05:05:15 10° ESE visible
25 Oct - 06:48:26 10° W 07:07:29 42° SW 07:27:28 10° SSE visible
25 Oct - 09:22:35 10° WSW 09:30:49 13° SW 09:38:41 10° SSW daylight
25 Oct - 21:47:04 10° S 21:53:05 25° SE 22:02:14 10° E night (unlit)
26 Oct - 00:03:54 10° WSW 00:13:18 66° SSE 00:31:00 10° E visible
26 Oct - 02:23:53 10° W 02:37:14 81° S 02:59:49 10° E visible
26 Oct - 04:45:40 10° W 05:03:13 64° SSW 05:26:23 10° SE visible
26 Oct - 07:10:34 10° W 07:28:31 34° SW 07:47:05 10° SSE daylight
26 Oct - 22:06:51 10° SSW 22:13:30 33° SE 22:24:32 10° E night (unlit)
27 Oct - 00:24:42 10° WSW 00:34:27 73° SSE 00:52:55 10° E visible
27 Oct - 02:45:00 10° W 02:58:47 79° S 03:21:37 10° ESE visible
27 Oct - 05:07:03 10° W 05:24:39 56° SSW 05:47:13 10° SE visible
27 Oct - 07:33:15 10° W 07:49:27 27° SW 08:06:03 10° S daylight
27 Oct - 22:27:02 10° SW 22:34:04 44° SE 22:46:33 10° E night (unlit)
28 Oct - 00:45:37 10° WSW 00:55:44 78° S 01:14:51 10° E visible
28 Oct - 03:06:08 10° W 03:20:20 74° SSW 03:43:15 10° ESE visible
28 Oct - 05:28:33 10° W 05:45:58 48° SSW 06:07:42 10° SE visible
28 Oct - 07:56:58 10° W 08:10:21 19° SW 08:23:58 10° S daylight
28 Oct - 20:32:59 10° SSE 20:35:52 13° SE 20:39:21 10° ESE visible
28 Oct - 22:47:30 10° SW 22:54:50 54° SSE 23:08:24 10° E night (unlit)
29 Oct - 01:06:35 10° W 01:17:06 80° S 01:36:47 10° E visible
29 Oct - 03:27:17 10° W 03:41:51 69° SSW 04:04:41 10° ESE visible
29 Oct - 05:50:15 10° W 06:07:13 40° SW 06:27:46 10° SSE visible
29 Oct - 08:23:10 10° WSW 08:31:16 13° SW 08:39:26 10° SSW daylight
29 Oct - 20:51:39 10° S 20:56:11 20° SE 21:02:34 10° E visible
29 Oct - 23:08:09 10° WSW 23:15:46 64° SSE 23:30:14 10° E night (unlit)
30 Oct - 01:27:36 10° W 01:38:30 80° S 01:58:41 10° E visible
30 Oct - 03:48:29 10° W 04:03:18 61° SSW 04:25:51 10° SE visible
30 Oct - 06:12:19 10° W 06:28:24 33° SW 06:47:20 10° SSE visible
30 Oct - 21:11:20 10° SSW 21:16:37 29° SE 21:24:49 10° E visible
30 Oct - 23:28:56 10° WSW 23:36:50 72° SSE 23:52:03 10° E night (unlit)
31 Oct - 01:48:37 10° W 01:59:55 77° S 02:20:29 10° ESE visible
31 Oct - 04:09:47 10° W 04:24:42 54° SSW 04:46:42 10° SE visible
31 Oct - 06:34:57 10° W 06:49:32 25° SW 07:06:11 10° S visible
31 Oct - 21:31:30 10° SW 21:37:11 39° SSE 21:46:43 10° E visible
